FW7749 Weather Reports


time (UTC)temp
F
wind
direction
speed
knots
gust
knots
rain 1hr
in
rain 24hr
in
rain mn
in
humidity
%
barometer
mb
20260906104545 69 0.0 0.0 0.00 0.04 0.00 87 1016.5
20260906103520 68 0.0 0.0 0.00 0.04 0.00 87 1016.5
20260906102552 68 0.0 0.0 0.00 0.04 0.00 87 1016.6
20260906101523 68 0.0 0.0 0.00 0.04 0.00 87 1016.5
20260906100632 68 0.0 0.0 0.00 0.04 0.00 87 1016.5
20260906095600 68 0.0 0.0 0.00 0.04 0.00 87 1016.5
20260906094521 68 0.0 0.0 0.00 0.04 0.00 87 1016.4
20260906093553 69 0.0 0.0 0.00 0.04 0.00 87 1016.4
20260906092603 69 0.0 0.0 0.00 0.04 0.00 87 1016.2
20260906091520 69 0.0 0.0 0.00 0.04 0.00 87 1016.4
20260906090553 70 0.0 0.0 0.00 0.04 0.00 86 1016.5
20260906085525 70 0.0 0.0 0.00 0.04 0.00 87 1016.4
20260906084539 71 0.0 0.0 0.00 0.04 0.00 86 1016.6
20260906083546 71 0.0 0.0 0.00 0.04 0.00 86 1016.4
20260906082524 71 0.0 0.0 0.00 0.04 0.00 87 1016.4
20260906081552 71 0.0 0.0 0.00 0.04 0.00 87 1016.3
20260906080531 70 0.0 0.0 0.00 0.04 0.00 87 1016.2
20260906075523 70 0.0 0.0 0.00 0.04 0.00 87 1016.3
20260906074602 69 0.0 0.0 0.00 0.04 0.00 87 1016.3
20260906073527 69 0.0 0.0 0.00 0.04 0.00 87 1016.4
20260906072552 69 0.0 0.0 0.00 0.04 0.00 87 1016.4
20260906071548 70 0.0 0.0 0.00 0.04 0.00 87 1016.1
20260906070543 70 0.0 0.0 0.00 0.04 0.00 87 1016.0
20260906065553 70 0.0 0.0 0.00 0.04 0.00 87 1016.1
20260906064551 70 0.0 0.0 0.00 0.04 0.00 86 1016.1
20260906063552 72 0.0 0.0 0.00 0.04 0.00 85 1016.2
20260906062552 72 0.0 0.0 0.00 0.04 0.00 85 1016.5
20260906061530 72 0.0 0.0 0.00 0.04 0.00 85 1016.5
20260906060552 72 0.0 0.0 0.00 0.04 0.00 86 1016.4
20260906055537 71 0.0 0.0 0.00 0.04 0.00 86 1016.4
20260906054529 72 0.0 0.0 0.00 0.04 0.00 87 1016.5
20260906053555 72 0.0 0.0 0.00 0.04 0.00 86 1016.6
20260906052526 72 0.0 0.0 0.00 0.04 0.00 86 1016.7
20260906051552 72 0.0 0.0 0.00 0.04 0.00 86 1016.8
20260906050538 72 0.0 0.0 0.00 0.04 0.00 85 1016.8
20260906045523 71 0.0 0.0 0.00 0.04 0.00 86 1016.7
20260906044552 71 0.0 0.0 0.00 0.04 0.00 86 1016.7
20260906043520 71 0.0 0.0 0.00 0.04 0.00 86 1016.8
20260906042612 71 0.0 0.0 0.00 0.04 0.00 85 1017.0
20260906041558 71 0.0 0.0 0.00 0.04 0.00 85 1016.9
20260906040519 71 0.0 0.0 0.00 0.04 0.00 85 1017.2
20260906035552 71 0.0 0.0 0.00 0.04 0.04 85 1017.1
20260906034524 71 0.0 0.0 0.00 0.04 0.04 85 1017.2
20260906033526 71 0.0 0.0 0.00 0.04 0.04 85 1017.1
20260906032622 72 0.0 0.0 0.00 0.04 0.04 85 1017.1
20260906031522 72 0.0 0.0 0.00 0.04 0.04 84 1017.2
20260906030612 72 0.0 0.0 0.00 0.04 0.04 85 1017.3
20260906025537 73 0.0 0.0 0.00 0.04 0.04 84 1017.2
20260906024521 73 0.0 0.0 0.00 0.04 0.04 84 1016.9
20260906023552 73 0.0 0.0 0.00 0.04 0.04 83 1017.0
20260906022546 73 0.0 0.0 0.00 0.04 0.04 83 1016.7
20260906021522 73 0.0 0.0 0.00 0.04 0.04 83 1016.4
20260906020547 73 0.0 0.0 0.00 0.04 0.04 84 1016.4
20260906015525 73 0.0 0.0 0.00 0.04 0.04 85 1016.3
20260906014552 73 0.0 0.0 0.00 0.04 0.04 84 1016.2
20260906013550 73 0.0 0.0 0.00 0.04 0.04 84 1016.1
20260906012524 73 0.0 0.0 0.00 0.04 0.04 84 1015.9
20260906011622 74 0.0 0.0 0.00 0.04 0.04 83 1016.2
20260906010528 74 0.0 0.0 0.00 0.04 0.04 84 1016.2
20260906005632 75 0.0 0.0 0.00 0.04 0.04 83 1016.1
20260906004549 74 0.0 0.0 0.00 0.04 0.04 83 1015.9
20260906003527 74 0.0 0.0 0.00 0.04 0.04 83 1015.8
20260906002554 74 0.0 0.0 0.00 0.04 0.04 84 1015.6
20260906001532 76 0.0 0.0 0.03 0.04 0.04 79 1015.9
20260906000552 76 0.0 0.0 0.04 0.04 0.04 80 1016.1
20260905235613 76 0.0 0.0 0.04 0.04 0.04 76 1015.9
20260905234532 77 0.0 0.0 0.04 0.04 0.04 76 1016.1
20260905233552 78 0.0 0.0 0.04 0.04 0.04 78 1015.8
20260905232535 78 344 0.9 1.7 0.04 0.04 0.04 77 1015.9
20260905231525 81 0.0 0.0 0.01 0.01 0.01 61 1016.3
20260905230556 82 0.0 0.0 0.00 0.00 0.00 60 1016.1
20260905225526 84 0.0 0.0 0.00 0.00 0.00 57 1016.1
20260905224553 84 350 0.0 2.6 0.00 0.00 0.00 56 1016.0
20260905223559 84 163 0.0 1.7 0.00 0.00 0.00 58 1015.9
20260905222523 84 0.0 0.0 0.00 0.00 0.00 58 1015.9
20260905221612 84 12 0.9 2.6 0.00 0.00 0.00 59 1015.8
20260905220523 84 113 0.0 0.9 0.00 0.00 0.00 63 1015.9
20260905215612 82 336 0.0 1.7 0.00 0.00 0.00 64 1015.9
20260905214615 83 0.0 0.0 0.00 0.00 0.00 63 1016.2
20260905213520 84 0.0 0.0 0.00 0.00 0.00 64 1016.1
20260905212552 84 334 2.6 5.2 0.00 0.00 0.00 62 1016.6
20260905211524 86 335 0.9 1.7 0.00 0.00 0.00 61 1016.2
20260905210518 88 236 0.9 2.6 0.00 0.00 0.00 59 1016.4
20260905205602 87 35 0.0 0.9 0.00 0.00 0.00 59 1016.3
20260905204523 88 98 0.9 2.6 0.00 0.00 0.00 59 1016.5
20260905203552 87 82 0.9 0.9 0.00 0.00 0.00 58 1016.8
20260905202545 87 0.9 0.9 0.00 0.00 0.00 58 1016.8
20260905201522 86 0.0 0.0 0.00 0.00 0.00 62 1016.8
20260905200551 85 112 0.9 1.7 0.00 0.00 0.00 61 1016.8
20260905195523 84 0.0 0.0 0.00 0.00 0.00 60 1016.9
20260905194522 84 122 0.9 1.7 0.00 0.00 0.00 64 1017.1
20260905193544 84 48 0.9 1.7 0.00 0.00 0.00 64 1017.1
20260905192525 84 59 0.9 0.9 0.00 0.00 0.00 65 1017.1
20260905191551 84 62 1.7 2.6 0.00 0.00 0.00 66 1017.6
20260905190547 83 0.0 0.9 0.00 0.00 0.00 66 1017.8
20260905185526 83 113 1.7 3.5 0.00 0.00 0.00 64 1017.9
20260905184602 82 0.0 0.0 0.00 0.00 0.00 64 1017.9
20260905183529 82 149 0.9 1.7 0.00 0.00 0.00 65 1017.7
20260905182552 81 0.9 4.3 0.00 0.00 0.00 63 1017.7
20260905181538 79 206 0.9 1.7 0.00 0.00 0.00 68 1018.2
20260905180522 77 75 0.0 1.7 0.00 0.00 0.00 69 1018.5
20260905175551 76 0.0 0.0 0.00 0.00 0.00 72 1018.4
20260905174523 76 184 0.0 0.9 0.00 0.00 0.00 71 1019.0
20260905173612 76 0.0 0.0 0.00 0.00 0.00 70 1018.9
20260905172614 76 0.0 0.0 0.00 0.00 0.00 69 1018.7
20260905171519 77 0.0 0.0 0.00 0.00 0.00 67 1018.7
20260905170552 78 82 0.9 3.5 0.00 0.00 0.00 64 1018.8
20260905165530 77 214 3.5 7.8 0.00 0.00 0.00 62 1019.0
20260905164525 80 147 5.2 7.8 0.00 0.00 0.00 61 1019.4
20260905163557 83 152 2.6 5.2 0.00 0.00 0.00 69 1019.4
20260905162526 82 0.9 0.9 0.00 0.00 0.00 71 1018.5
20260905161551 81 0.0 0.0 0.00 0.00 0.00 72 1018.6
20260905160537 80 0.0 0.0 0.00 0.00 0.00 72 1018.6
20260905155533 80 0.0 0.9 0.00 0.00 0.00 73 1018.8
20260905154553 79 0.0 0.9 0.00 0.00 0.00 73 1018.8
20260905153523 79 334 0.0 0.9 0.00 0.00 0.00 75 1018.8
20260905152553 77 185 0.9 1.7 0.00 0.00 0.00 78 1018.6
20260905151554 77 19 0.9 0.9 0.00 0.00 0.00 79 1018.8
20260905150540 76 2.6 2.6 0.00 0.00 0.00 79 1019.0
20260905145551 76 0.0 0.0 0.00 0.00 0.00 81 1019.2
20260905144525 75 0.0 0.0 0.00 0.00 0.00 81 1019.1
20260905143519 74 0.0 0.0 0.00 0.00 0.00 83 1019.1
20260905142603 75 0.0 0.0 0.00 0.00 0.00 82 1019.2
20260905141546 73 0.0 0.0 0.00 0.00 0.00 83 1019.4
20260905140553 73 0.0 0.0 0.00 0.00 0.00 84 1019.2
20260905135545 73 0.0 0.0 0.00 0.00 0.00 83 1019.3
20260905134523 71 0.0 0.0 0.00 0.00 0.00 84 1019.3
20260905133551 71 0.0 0.0 0.00 0.00 0.00 84 1019.5
20260905132523 72 0.0 0.0 0.00 0.00 0.00 84 1019.5
20260905131523 70 0.0 0.0 0.00 0.00 0.00 84 1019.6
20260905130609 70 0.0 0.0 0.00 0.00 0.00 84 1019.7
20260905125519 70 0.0 0.0 0.00 0.00 0.00 85 1019.7
20260905124551 71 0.0 0.0 0.00 0.00 0.00 85 1019.6
20260905123551 71 0.0 0.0 0.00 0.00 0.00 85 1019.8
20260905122525 69 0.0 0.0 0.00 0.00 0.00 85 1019.5
20260905121601 69 0.0 0.0 0.00 0.00 0.00 85 1019.3
20260905120526 70 0.0 0.0 0.00 0.00 0.00 84 1019.4
20260905115611 70 0.0 0.0 0.00 0.00 0.00 84 1019.2
20260905114537 70 0.0 0.0 0.00 0.00 0.00 85 1018.8
20260905113542 69 0.0 0.0 0.00 0.00 0.00 85 1018.9
20260905112611 69 0.0 0.0 0.00 0.00 0.00 85 1019.0
20260905111533 69 0.0 0.0 0.00 0.00 0.00 85 1018.9
20260905110551 70 0.0 0.0 0.00 0.00 0.00 85 1018.9
20260905105554 70 0.0 0.0 0.00 0.00 0.00 85 1018.7